KE5JJC Weather Reports


time (UTC)temp
F
wind
direction
speed
knots
gust
knots
rain 1hr
in
rain 24hr
in
rain mn
in
humidity
%
barometer
mb
20220124094532 18 147 0.0 0.0 0.00 0.00 0.00 94 1029.9
20220124093057 18 147 0.0 0.0 0.00 0.00 0.00 94 1030.0
20220124091547 18 146 0.0 0.0 0.00 0.00 0.00 94 1030.3
20220124090015 18 146 0.0 0.0 0.00 0.00 0.00 94 1030.4
20220124084600 18 146 0.0 0.0 0.00 0.00 0.00 94 1030.6
20220124083117 18 146 0.0 0.0 0.00 0.00 0.00 94 1030.7
20220124081547 18 146 0.0 0.0 0.00 0.00 0.00 94 1031.1
20220124080051 18 146 0.0 0.0 0.00 0.00 0.00 94 1031.0
20220124074619 18 146 0.0 0.0 0.00 0.00 0.00 94 1031.0
20220124073030 19 146 0.0 0.0 0.00 0.00 0.00 94 1031.1
20220124071511 19 146 0.0 0.0 0.00 0.00 0.00 94 1031.1
20220124070155 19 146 0.0 0.0 0.00 0.00 0.00 94 1031.1
20220124064622 20 146 0.0 0.0 0.00 0.00 0.00 95 1031.2
20220124063202 19 146 0.0 0.0 0.00 0.00 0.00 94 1031.1
20220124061545 20 146 0.0 0.0 0.00 0.00 0.00 95 1031.1
20220124060145 20 146 0.0 0.0 0.00 0.00 0.00 95 1031.2
20220124054630 20 146 0.0 0.0 0.00 0.00 0.00 94 1031.4
20220124053113 20 146 0.0 0.0 0.00 0.00 0.00 95 1031.3
20220124051556 20 147 0.0 0.0 0.00 0.00 0.00 95 1031.3
20220124050105 21 147 0.0 0.0 0.00 0.00 0.00 95 1031.5
20220124044644 21 147 0.0 0.0 0.00 0.00 0.00 95 1031.5
20220124043134 21 144 0.0 0.0 0.00 0.00 0.00 95 1031.6
20220124043017 21 144 0.0 0.0 0.00 0.00 0.00 95 1031.6
20220124041526 21 144 0.0 0.0 0.00 0.00 0.00 95 1031.5
20220124040024 21 196 0.0 0.0 0.00 0.00 0.00 95 1031.6
20220124034523 21 196 0.0 0.0 0.00 0.00 0.00 95 1031.6
20220124033118 21 197 0.0 0.0 0.00 0.00 0.00 95 1031.6
20220124031507 21 197 0.0 0.0 0.00 0.00 0.00 95 1031.5
20220124030116 21 197 0.0 0.0 0.00 0.00 0.00 95 1031.6
20220124024610 21 197 0.0 0.0 0.00 0.00 0.00 95 1031.7
20220124023116 21 197 0.0 0.0 0.00 0.00 0.00 95 1031.9
20220124021547 21 197 0.0 0.0 0.00 0.00 0.00 95 1031.9
20220124020043 22 197 0.0 0.0 0.00 0.00 0.00 95 1032.0
20220124014541 22 197 0.0 0.0 0.00 0.00 0.00 95 1031.9
20220124013034 22 197 0.0 0.0 0.00 0.00 0.00 95 1032.2
20220124011607 22 197 0.0 0.0 0.00 0.00 0.00 95 1032.2
20220124010110 23 197 0.0 0.0 0.00 0.00 0.00 95 1032.3
20220124004610 23 197 0.0 0.0 0.00 0.00 0.00 95 1032.1
20220124003225 24 134 0.0 0.0 0.00 0.00 0.00 95 1032.3
20220124001628 24 134 0.0 0.0 0.00 0.00 0.00 95 1032.4
20220124000228 24 106 0.0 0.0 0.00 0.00 0.00 95 1032.3
20220123234541 24 106 0.0 0.0 0.00 0.00 0.00 95 1032.1
20220123233053 24 144 0.0 0.0 0.00 0.00 0.00 95 1032.2
20220123231524 24 144 0.0 0.0 0.00 0.00 0.00 95 1032.2
20220123230136 24 143 0.0 0.0 0.00 0.00 0.00 95 1032.1
20220123224554 25 144 0.0 0.0 0.00 0.01 0.00 95 1032.1
20220123223022 25 144 0.0 0.0 0.00 0.01 0.00 95 1031.9
20220123221519 25 112 0.0 0.0 0.00 0.01 0.00 95 1031.9
20220123220018 25 112 0.0 0.0 0.00 0.01 0.00 95 1031.9
20220123214606 25 102 0.0 0.0 0.00 0.01 0.00 95 1032.0
20220123213039 25 102 0.0 0.0 0.00 0.01 0.00 95 1031.9
20220123211610 25 102 0.0 0.0 0.00 0.01 0.00 95 1031.9
20220123210043 25 102 0.0 0.0 0.00 0.01 0.00 95 1032.0
20220123204534 24 68 0.0 0.0 0.00 0.01 0.00 95 1032.2
20220123203004 24 98 0.0 0.0 0.00 0.01 0.00 95 1032.4
20220123201504 24 99 0.0 0.0 0.00 0.01 0.00 95 1032.6
20220123200038 24 98 0.0 0.0 0.00 0.01 0.00 95 1032.5
20220123194535 24 99 0.0 0.0 0.00 0.01 0.00 95 1032.7
20220123193014 24 39 0.0 0.0 0.00 0.01 0.00 95 1032.8
20220123191545 24 39 0.0 0.0 0.00 0.01 0.00 95 1033.1
20220123190010 24 38 0.0 0.0 0.00 0.01 0.00 95 1033.3
20220123184615 23 38 0.0 0.0 0.00 0.01 0.00 95 1033.5
20220123183128 23 38 0.0 0.0 0.00 0.01 0.00 95 1033.5
20220123181618 23 38 0.0 0.0 0.00 0.01 0.00 95 1033.5
20220123180132 23 39 0.0 0.0 0.00 0.01 0.00 95 1033.5
20220123174556 23 148 0.0 0.0 0.00 0.01 0.00 95 1033.6
20220123173047 22 148 0.0 0.0 0.00 0.01 0.00 95 1033.9
20220123171521 22 149 0.0 0.0 0.00 0.01 0.00 95 1033.8
20220123170347 22 149 0.0 0.0 0.00 0.01 0.00 95 1033.9
20220123164655 21 148 0.0 0.0 0.00 0.01 0.00 95 1033.8
20220123163143 21 148 0.0 0.0 0.00 0.01 0.00 95 1033.9
20220123161641 21 148 0.0 0.0 0.00 0.01 0.00 95 1034.0
20220123160055 21 148 0.0 0.0 0.00 0.01 0.00 95 1034.1
20220123154604 21 148 0.0 0.0 0.00 0.01 0.00 95 1034.1
20220123153138 21 148 0.0 0.0 0.00 0.01 0.00 95 1034.3
20220123151614 21 148 0.0 0.0 0.00 0.01 0.00 95 1034.4
20220123151509 21 148 0.0 0.0 0.00 0.01 0.00 95 1034.4
20220123150104 21 148 0.0 0.0 0.00 0.01 0.00 95 1034.7
20220123144530 21 148 0.0 0.0 0.00 0.01 0.00 95 1034.9
20220123143014 21 148 0.0 0.0 0.00 0.01 0.00 95 1034.9
20220123141514 21 148 0.0 0.0 0.00 0.01 0.00 95 1035.2
20220123140139 20 148 0.0 0.0 0.00 0.01 0.00 95 1035.1
20220123134519 20 148 0.0 0.0 0.00 0.01 0.00 95 1035.3
20220123133221 20 148 0.0 0.0 0.00 0.01 0.00 95 1035.5
20220123133005 20 148 0.0 0.0 0.00 0.01 0.00 95 1035.5
20220123131514 20 167 0.0 0.0 0.00 0.01 0.00 95 1035.6
20220123130023 20 180 0.0 0.0 0.00 0.01 0.00 95 1035.7
20220123124714 20 183 0.0 0.0 0.00 0.01 0.00 95 1036.0
20220123123102 20 183 0.0 0.0 0.00 0.01 0.00 95 1036.0
20220123121626 20 148 0.0 0.0 0.00 0.01 0.00 95 1036.2
20220123120026 20 147 0.0 0.0 0.00 0.01 0.00 95 1036.1
20220123114533 21 159 0.0 0.0 0.00 0.01 0.00 95 1036.1
20220123113014 21 160 0.0 0.0 0.00 0.01 0.00 95 1036.3
20220123111622 21 148 0.0 0.0 0.00 0.01 0.00 95 1036.4
20220123110107 21 148 0.0 0.0 0.00 0.01 0.00 95 1036.4
20220123104617 21 148 0.0 0.0 0.00 0.01 0.00 95 1036.6
20220123103130 21 148 0.0 0.0 0.00 0.01 0.00 95 1036.8
20220123101607 21 148 0.0 0.0 0.00 0.01 0.00 95 1036.8
20220123100104 22 148 0.0 0.0 0.00 0.01 0.00 95 1036.8